カタログに戻る

STARLINK-33533

運用中通信VLEO
NORAD 63387·PAYLOAD·🇺🇸 United States

打ち上げ Mar 26, 2025 から Vandenberg Space Force Base

Loading…

次のパス (今後24時間)

TLE

最新Source: CelesTrak SupGP

元期: Sep 14, 2026, 22:54 UTC

1 63387C 25063AA  26257.95465278  .00032491  00000+0  95988-3 0  2578
2 63387  53.1573 247.6980 0001307  97.1588   0.0773 15.34376971    12

AllMySatでSTARLINK-33533をリアルタイム追跡

Download on the App Store